Regional Weather Roundup
Issued by NWS

Home | Current Version | Previous Version | Text Only | Print | Product List | Glossary On
Versions: 1 2 3 4 5 6 7 8 9 10 11 12 13 14 15 16 17 18 19 20 21 22 23 24 25 26 27 28 29 30 31 32 33 34 35 36 37 38 39 40 41 42 43 44 45 46 47 48 49 50
000
ASUS43 KLOT 030303
RWRIL

ILLINOIS REGIONAL WEATHER ROUNDUP
NATIONAL WEATHER SERVICE CHICAGO/ROMEOVILLE IL
1000 PM CDT TUE JUN 02 2020

NOTE: "FAIR" INDICATES FEW OR NO CLOUDS BELOW 12,000 FEET WITH NO
SIGNIFICANT WEATHER AND/OR OBSTRUCTIONS TO VISIBILITY.

* THESE STATIONS ARE NOT UNDER NWS QUALITY CONTROL. THEY ALSO MAY NOT
  REPORT WEATHER SUCH AS PRECIPITATION OR FOG.

ILZ001-002-007-009-015-016-024-030400-
NORTHWEST ILLINOIS

CITY           SKY/WX    TMP DP  RH WIND       PRES   REMARKS
MOLINE         PTCLDY    81  65  58 SW8       29.86R HX  83
STERLING*      PTCLDY    81  66  60 SW12      29.86R HX  83
SAVANNA*       MOCLDY    82  66  57 W6        29.86R HX  85
$$

ILZ003-004-008-010-011-017-018-030400-
NORTH CENTRAL ILLINOIS

CITY           SKY/WX    TMP DP  RH WIND       PRES   REMARKS
ROCKFORD       CLOUDY    83  64  52 SW8       29.85R HX  84
FREEPORT*      CLOUDY    81  65  59 W8        29.89R HX  82
ROCHELLE*      MOCLDY    80  64  58 SW12      29.86R HX  81
DE KALB*       MOCLDY    82  64  53 W16       29.87R HX  83
PERU*          CLEAR     82  66  59 SW9       29.87S HX  84
$$

ILZ005-006-012>014-019>023-030400-
NORTHEAST ILLINOIS

CITY           SKY/WX    TMP DP  RH WIND       PRES   REMARKS
CHICAGO-OHARE  CLOUDY    86  63  45 SW15      29.81R HX  87
CHICAGO-MIDWAY MOCLDY    85  65  51 SW16      29.83R HX  86
AURORA         PTCLDY    81  64  56 SW8       29.85R HX  82
JOLIET*        CLEAR     83  67  58 SW8       29.86R HX  86
WAUKEGAN       CLOUDY    84  64  50 SW9       29.80R HX  85
DUPAGE AIRPORT MOCLDY    81  64  56 SW9       29.84R HX  82
WHEELING       MOCLDY    87  62  43 SW9       29.82R HX  87
MORRIS*        CLEAR     81  66  59 SW9       29.85S HX  83
ROMEOVILLE*    PTCLDY    82  66  59 SW12G18   29.86R HX  84
NORTHERLY ISL    N/A     85  62  46 SW8         N/A  HX  85
$$

LMZ740>746-030400-
SOUTHERN LAKE MICHIGAN

STATION/POSITION SKY/WX   TEMP    WIND        PRES    VSBY  WAVE
                          AIR SEA DIR/SP/G                  HT/PER
                          (F)     (DEG/KT/KT) (MB)    (MI)  (FT/S)
WINTHROP HARBOR            66 48  260/  6/  8   N/A           0
WAUKEGAN HARBOR            68 53   90/  6/  6   N/A           0
WILMETTE HARBOR               59  230/  8/ 10 1009.5R         1/ 2
HARRISON CRIB              87     230/ 17/ 19   N/A
NORTHERLY ISL              85     200/  6/ 14   N/A
CALUMET HARBOR             86     220/  6/ 13 1009.7R
MICHIGAN CITY              83     230/ 18/ 19   N/A
$$

ILZ025>027-034>036-040-047-049-050-058-095>099-030400-
WEST-CENTRAL ILLINOIS

CITY           SKY/WX    TMP DP  RH WIND       PRES   REMARKS
QUINCY         CLEAR     75  63  66 SW8       29.92R
GALESBURG*     CLEAR     78  63  59 SW8       29.92R HX  80
MACOMB*        CLEAR     76  65  67 SW9       29.93R
JACKSONVILLE*  CLEAR     75  62  64 CALM      29.93R
PITTSFIELD*    CLEAR     77  68  72 SW6       29.95R
$$

ILZ028>032-037-038-041>044-048-051>054-059>061-030400-
CENTRAL ILLINOIS

CITY           SKY/WX    TMP DP  RH WIND       PRES   REMARKS
BLOOMINGTON    CLEAR     79  62  56 SW14      29.93R HX  80
DECATUR        CLEAR     77  59  53 SW10      29.94R
PEORIA         CLEAR     78  64  61 SW8       29.91R HX  80
LACON*         CLEAR     79  65  63 SW5       29.89R HX  81
LINCOLN*       CLEAR     80  57  44 SW6       29.93R HX  80
SPRINGFIELD    CLEAR     77  59  53 SW5       29.94R
TAYLORVILLE    CLEAR     76  59  56 SW6       29.95R
$$

ILZ033-039-045-046-055>057-062-063-030400-
EAST-CENTRAL ILLINOIS

CITY           SKY/WX    TMP DP  RH WIND       PRES   REMARKS
CHAMPAIGN      CLEAR     79  58  48 SW15      29.93R HX  80
DANVILLE*      CLEAR     80  60  49 SW12      29.92R HX  81
RANTOUL*       CLEAR     79  60  52 SW9       29.92R HX  80
MATTOON        CLEAR     78  59  51 S9        29.93S
PARIS*         CLEAR     79  60  53 SW10      29.94R HX  80
$$

ILZ079-100>102-030400-
SOUTHWEST ILLINOIS

CITY           SKY/WX    TMP DP  RH WIND       PRES   REMARKS
ALTON          PTCLDY    73  64  73 S6        29.95S
BELLEVILLE     CLEAR     76  62  62 CALM      29.94S
CAHOKIA*       PTCLDY    77  62  59 CALM      29.95R
SPARTA*        PTCLDY    76  63  62 S8        29.99S
$$

ILZ064>066-069>071-074>076-080>082-084>086-088>090-092>094-030400-
SOUTH-CENTRAL ILLINOIS

CITY           SKY/WX    TMP DP  RH WIND       PRES   REMARKS
CARBONDALE     CLEAR     70  60  70 S7        29.99S
CAIRO*         PTCLDY    75  60  58 CALM      30.02R
EFFINGHAM*     CLEAR     74  64  70 SE3       29.97S
MARION         CLEAR     69  60  73 SW6       30.00S
MT. VERNON     CLEAR     71  60  68 SW3       29.98S
CENTRALIA*     CLEAR     76  62  62 S8        29.96S
SALEM*         CLEAR     76  60  57 S9        29.96S
METROPOLIS*    MOCLDY    70  55  59 S3        30.02S
$$

ILZ067-068-072-073-078-083-087-091-030400-
SOUTHEAST ILLINOIS

CITY           SKY/WX    TMP DP  RH WIND       PRES   REMARKS
LAWRENCEVILLE    N/A    N/A N/A N/A S7        29.96F
FAIRFIELD*     CLEAR     74  59  60 CALM      29.97S
HARRISBURG*    CLEAR     73  61  65 SW5       30.00S
ROBINSON*      CLEAR     71  60  67 S7        29.96S
CARMI*         CLEAR     72  61  68 N7        29.98S
$$

ABBREVIATIONS USED IN REMARKS
   TC - TEMPERATURE IN CELSIUS
  WCI - WIND CHILL INDEX
   HX - HEAT INDEX
  VSB - VISIBILITY
$$





USA.gov is the U.S. government's official web portal to all federal, state and local government web resources and services.